FW4606 Weather Reports


Display with metric or nautical units.
time (UTC)temp
F
wind
direction
speed
MPH
gust
MPH
rain 1hr
in
rain 24hr
in
rain mn
in
humidity
%
barometer
mb
20260906182716 81 222 1.0 4.0 0.00 0.00 0.00 73 1018.5
20260906182212 80 287 1.0 5.0 0.00 0.00 0.00 73 1018.6
20260906181712 81 172 1.0 5.0 0.00 0.00 0.00 73 1018.6
20260906181209 81 132 1.0 4.0 0.00 0.00 0.00 73 1018.6
20260906180704 81 117 1.0 4.0 0.00 0.00 0.00 72 1018.5
20260906180157 81 270 1.0 4.0 0.00 0.00 0.00 72 1018.4
20260906175651 81 160 1.0 4.0 0.00 0.00 0.00 71 1018.4
20260906175417 82 312 1.0 4.0 0.00 0.00 0.00 71 1018.4
20260906174640 82 197 1.0 7.0 0.00 0.00 0.00 72 1018.3
20260906174134 82 271 2.0 7.0 0.00 0.00 0.00 70 1018.5
20260906173628 82 174 2.0 4.0 0.00 0.00 0.00 72 1018.5
20260906173121 82 217 2.0 4.0 0.00 0.00 0.00 73 1018.5
20260906172616 81 84 1.0 4.0 0.00 0.00 0.00 73 1018.5
20260906172109 81 68 1.0 4.0 0.00 0.00 0.00 74 1018.6
20260906171604 81 119 1.0 6.0 0.00 0.00 0.00 74 1018.7
20260906171057 81 173 1.0 6.0 0.00 0.00 0.00 75 1018.8
20260906170826 80 219 1.0 4.0 0.00 0.00 0.00 76 1018.8
20260906170057 80 110 0.0 3.0 0.00 0.00 0.00 76 1018.9
20260906165556 80 298 1.0 4.0 0.00 0.00 0.00 77 1018.9
20260906165055 80 88 1.0 7.0 0.00 0.00 0.00 75 1018.9
20260906164555 79 226 1.0 7.0 0.00 0.00 0.00 77 1018.9
20260906164056 79 136 1.0 5.0 0.00 0.00 0.00 80 1018.9
20260906163556 78 129 1.0 5.0 0.00 0.00 0.00 80 1019.0
20260906163056 78 71 1.0 4.0 0.00 0.00 0.00 80 1019.1
20260906162557 78 8 1.0 4.0 0.00 0.00 0.00 80 1019.1
20260906162100 78 264 1.0 4.0 0.00 0.00 0.00 81 1019.1
20260906161554 77 257 0.0 3.0 0.00 0.00 0.00 81 1019.0
20260906161325 77 349 1.0 4.0 0.00 0.00 0.00 82 1019.0
20260906160555 78 259 1.0 4.0 0.00 0.00 0.00 81 1019.3
20260906160055 77 194 1.0 5.0 0.00 0.00 0.00 82 1019.4
20260906155553 77 141 1.0 5.0 0.00 0.00 0.00 80 1019.4
20260906155053 78 208 0.0 4.0 0.00 0.00 0.00 81 1019.5
20260906154553 78 236 0.0 4.0 0.00 0.00 0.00 80 1019.3
20260906154047 78 56 0.0 4.0 0.00 0.00 0.00 83 1019.3
20260906153547 77 134 0.0 4.0 0.00 0.00 0.00 82 1019.2
20260906153047 77 155 0.0 4.0 0.00 0.00 0.00 83 1019.3
20260906152550 77 113 0.0 4.0 0.00 0.00 0.00 83 1019.4
20260906152047 76 131 0.0 4.0 0.00 0.00 0.00 84 1019.6
20260906151546 76 63 0.0 3.0 0.00 0.00 0.00 85 1019.5
20260906151046 76 326 0.0 3.0 0.00 0.00 0.00 86 1019.4
20260906150546 76 103 0.0 3.0 0.00 0.00 0.00 85 1019.4
20260906150044 75 203 0.0 3.0 0.00 0.00 0.00 86 1019.3
20260906145544 75 122 0.0 3.0 0.00 0.00 0.00 85 1019.2
20260906145045 75 184 0.0 2.0 0.00 0.00 0.00 87 1019.1
20260906144542 74 264 0.0 5.0 0.00 0.00 0.00 87 1019.1
20260906144042 74 262 1.0 5.0 0.00 0.00 0.00 88 1019.2
20260906143542 74 179 1.0 4.0 0.00 0.00 0.00 89 1019.2
20260906143042 73 216 0.0 4.0 0.00 0.00 0.00 90 1019.2
20260906142541 72 157 1.0 4.0 0.00 0.00 0.00 91 1019.2
20260906142042 72 226 1.0 4.0 0.00 0.00 0.00 91 1019.3
20260906141546 72 195 1.0 4.0 0.00 0.00 0.00 92 1019.3
20260906141038 71 243 0.0 4.0 0.00 0.00 0.00 93 1019.3
20260906140545 71 195 0.0 3.0 0.00 0.00 0.00 94 1019.2
20260906140538 71 205 0.0 3.0 0.00 0.00 0.00 93 1019.2
20260906135537 70 314 0.0 3.0 0.00 0.00 0.00 95 1019.3
20260906135036 70 280 0.0 2.0 0.00 0.00 0.00 96 1019.2
20260906134536 70 302 0.0 3.0 0.00 0.00 0.00 96 1019.2
20260906134036 69 263 0.0 3.0 0.00 0.00 0.00 97 1019.1
20260906133535 69 108 0.0 3.0 0.00 0.00 0.00 97 1019.1
20260906133035 69 106 0.0 0.0 0.00 0.00 0.00 97 1019.0
20260906132535 69 136 0.0 1.0 0.00 0.00 0.00 97 1019.0
20260906132034 68 333 0.0 2.0 0.00 0.00 0.00 97 1019.0
20260906131532 68 333 0.0 2.0 0.00 0.00 0.00 97 1019.0
20260906131303 68 221 0.0 0.0 0.00 0.00 0.00 97 1018.9
20260906130801 68 46 0.0 0.0 0.00 0.00 0.00 97 1019.0
20260906130029 67 351 0.0 0.0 0.00 0.00 0.00 97 1019.0
20260906125530 67 350 0.0 0.0 0.00 0.00 0.00 97 1019.1
20260906125030 67 350 0.0 0.0 0.00 0.00 0.00 97 1019.0
20260906124528 67 351 0.0 0.0 0.00 0.00 0.00 97 1019.0
20260906124028 67 22 0.0 0.0 0.00 0.00 0.00 97 1019.0
20260906123759 66 24 0.0 0.0 0.00 0.00 0.00 97 1019.0
20260906123026 66 25 0.0 0.0 0.00 0.00 0.00 97 1019.0
20260906122534 66 25 0.0 0.0 0.00 0.00 0.00 97 1019.0
20260906122529 66 24 0.0 0.0 0.00 0.00 0.00 97 1019.0
20260906121522 66 25 0.0 0.0 0.00 0.00 0.00 97 1018.9
20260906121019 66 24 0.0 0.0 0.00 0.00 0.00 97 1018.9
20260906120518 66 24 0.0 0.0 0.00 0.00 0.00 97 1018.8
20260906120017 65 25 0.0 0.0 0.00 0.00 0.00 96 1018.8
20260906115518 65 25 0.0 0.0 0.00 0.00 0.00 96 1018.7
20260906115016 66 24 0.0 0.0 0.00 0.00 0.00 96 1018.7
20260906114516 66 25 0.0 0.0 0.00 0.00 0.00 96 1018.7
20260906114017 66 24 0.0 0.0 0.00 0.00 0.00 97 1018.7
20260906113513 66 25 0.0 0.0 0.00 0.00 0.00 97 1018.7
20260906113246 66 24 0.0 0.0 0.00 0.00 0.00 97 1018.6
20260906112511 66 24 0.0 0.0 0.00 0.00 0.00 97 1018.6
20260906112010 66 25 0.0 0.0 0.00 0.00 0.00 97 1018.5
20260906111511 66 24 0.0 0.0 0.00 0.00 0.00 96 1018.5
20260906111011 66 24 0.0 0.0 0.00 0.00 0.00 96 1018.4
20260906110509 66 25 0.0 0.0 0.00 0.00 0.00 97 1018.4
20260906110010 66 24 0.0 0.0 0.00 0.00 0.00 97 1018.3
20260906105510 66 26 0.0 0.0 0.00 0.00 0.00 96 1018.3
20260906105010 66 122 0.0 0.0 0.00 0.00 0.00 96 1018.3
20260906104510 66 121 0.0 0.0 0.00 0.00 0.00 96 1018.3
20260906104007 66 122 0.0 0.0 0.00 0.00 0.00 96 1018.3
20260906103506 66 121 0.0 0.0 0.00 0.00 0.00 96 1018.3
20260906103006 65 120 0.0 0.0 0.00 0.00 0.00 96 1018.3
20260906102505 65 121 0.0 0.0 0.00 0.00 0.00 96 1018.3
20260906102005 65 120 0.0 0.0 0.00 0.00 0.00 95 1018.3
20260906101505 66 121 0.0 0.0 0.00 0.00 0.00 95 1018.1
20260906101007 66 122 0.0 0.0 0.00 0.00 0.00 95 1018.2
20260906100505 66 120 0.0 0.0 0.00 0.00 0.00 95 1018.2
20260906100007 66 120 0.0 0.0 0.00 0.00 0.00 95 1018.2
20260906095501 66 120 0.0 0.0 0.00 0.00 0.00 95 1018.0
20260906095003 66 120 0.0 0.0 0.00 0.00 0.00 95 1017.8
20260906094502 67 120 0.0 0.0 0.00 0.00 0.00 95 1017.7
20260906094237 67 120 0.0 0.0 0.00 0.00 0.00 95 1017.7
20260906093503 67 120 0.0 0.0 0.00 0.00 0.00 95 1017.6
20260906093003 67 120 0.0 0.0 0.00 0.00 0.00 95 1017.6
20260906092502 67 120 0.0 0.0 0.00 0.00 0.00 95 1017.6
20260906092002 67 120 0.0 0.0 0.00 0.00 0.00 95 1017.5
20260906091503 67 120 0.0 0.0 0.00 0.00 0.00 95 1017.4
20260906090959 67 120 0.0 0.0 0.00 0.00 0.00 95 1017.4
20260906090458 68 121 0.0 0.0 0.00 0.00 0.00 94 1017.5
20260906085958 68 121 0.0 0.0 0.00 0.00 0.00 94 1017.4
20260906085458 68 122 0.0 0.0 0.00 0.00 0.00 95 1017.5
20260906084959 68 120 0.0 0.0 0.00 0.00 0.00 95 1017.6
20260906084458 68 26 0.0 0.0 0.00 0.00 0.00 95 1017.5
20260906083957 68 26 0.0 0.0 0.00 0.00 0.00 95 1017.4
20260906083459 68 32 0.0 0.0 0.00 0.00 0.00 95 1017.3
20260906082958 68 32 0.0 0.0 0.00 0.00 0.00 94 1017.4
20260906082454 68 32 0.0 0.0 0.00 0.00 0.00 94 1017.4
20260906082224 68 32 0.0 0.0 0.00 0.00 0.00 94 1017.4
20260906081726 68 30 0.0 0.0 0.00 0.00 0.00 94 1017.5
20260906081618 68 30 0.0 0.0 0.00 0.00 0.00 94 1017.6
20260906080724 68 29 0.0 0.0 0.00 0.00 0.00 94 1017.5
20260906075953 68 30 0.0 0.0 0.00 0.00 0.00 94 1017.5
20260906075454 68 30 0.0 0.0 0.00 0.00 0.00 93 1017.5
20260906074953 68 30 0.0 0.0 0.00 0.00 0.00 93 1017.6
20260906074455 68 30 0.0 0.0 0.00 0.00 0.00 93 1017.5
20260906073954 68 30 0.0 0.0 0.00 0.00 0.00 93 1017.5
20260906073724 68 30 0.0 0.0 0.00 0.00 0.00 93 1017.5
20260906072954 69 30 0.0 0.0 0.00 0.00 0.00 92 1017.6
20260906072455 69 30 0.0 0.0 0.00 0.00 0.00 92 1017.5
20260906072224 69 30 0.0 0.0 0.00 0.00 0.00 92 1017.6
20260906071727 69 30 0.0 0.0 0.00 0.00 0.00 92 1017.8
20260906070953 70 30 0.0 0.0 0.00 0.00 0.00 92 1017.8
20260906070449 70 30 0.0 0.0 0.00 0.00 0.00 92 1017.8
20260906065949 70 30 0.0 0.0 0.00 0.00 0.00 92 1017.8
20260906065448 70 30 0.0 1.0 0.00 0.00 0.00 92 1017.8
20260906064945 70 30 0.0 1.0 0.00 0.00 0.00 92 1017.9
20260906064441 70 0 0.0 0.0 0.00 0.00 0.00 92 1018.0
20260906063942 70 359 0.0 0.0 0.00 0.00 0.00 92 1017.9
20260906063441 70 0 0.0 0.0 0.00 0.00 0.00 92 1018.0
20260906062941 70 338 0.0 1.0 0.00 0.00 0.00 92 1017.9
20260906062441 69 338 0.0 1.0 0.00 0.00 0.00 93 1017.8
20260906061941 69 79 0.0 0.0 0.00 0.00 0.00 92 1017.7
20260906061440 69 79 0.0 0.0 0.00 0.00 0.00 92 1017.8
20260906060938 70 79 0.0 0.0 0.00 0.00 0.00 91 1017.8
20260906060435 70 79 0.0 1.0 0.00 0.00 0.00 91 1017.8
20260906060205 70 79 0.0 1.0 0.00 0.00 0.00 92 1017.9
20260906055433 70 79 0.0 1.0 0.00 0.00 0.00 92 1017.8
20260906054930 69 85 0.0 0.0 0.00 0.00 0.00 91 1017.8
20260906054430 69 86 0.0 0.0 0.00 0.00 0.00 90 1017.8
20260906053928 70 86 0.0 0.0 0.00 0.00 0.00 90 1017.8
20260906053703 70 86 0.0 0.0 0.00 0.00 0.00 90 1017.8
20260906052933 71 85 0.0 0.0 0.00 0.00 0.00 90 1017.9
20260906052928 70 86 0.0 0.0 0.00 0.00 0.00 90 1017.9
20260906051924 71 85 0.0 0.0 0.00 0.00 0.00 90 1017.8
20260906051423 71 85 0.0 0.0 0.00 0.00 0.00 90 1017.8
20260906050918 71 84 0.0 0.0 0.00 0.00 0.00 90 1017.8
20260906050412 71 84 0.0 0.0 0.00 0.00 0.00 90 1017.8
20260906045905 71 85 0.0 0.0 0.00 0.00 0.00 90 1017.8
20260906045359 71 85 0.0 0.0 0.00 0.00 0.00 90 1017.8
20260906045125 71 85 0.0 0.0 0.00 0.00 0.00 90 1017.8
20260906044619 71 85 0.0 0.0 0.00 0.00 0.00 89 1017.9
20260906043841 71 85 0.0 0.0 0.00 0.00 0.00 88 1017.9
20260906043335 72 85 0.0 0.0 0.00 0.00 0.00 88 1018.0
20260906042829 72 84 0.0 0.0 0.00 0.00 0.00 88 1017.9
20260906042323 72 84 0.0 0.0 0.00 0.00 0.00 88 1017.9
20260906041817 72 84 0.0 0.0 0.00 0.00 0.00 88 1018.0
20260906041311 72 85 0.0 0.0 0.00 0.00 0.00 88 1018.0
20260906040804 72 84 0.0 0.0 0.00 0.00 0.00 88 1018.0
20260906040259 71 85 0.0 0.0 0.00 0.00 0.00 88 1017.9
20260906035753 71 85 0.0 0.0 0.00 0.00 0.00 87 1017.9
20260906035247 72 85 0.0 0.0 0.00 0.00 0.00 87 1017.9
20260906035013 72 84 0.0 0.0 0.00 0.00 0.00 87 1017.9
20260906034235 72 85 0.0 0.0 0.00 0.00 0.00 86 1017.9
20260906033729 72 84 0.0 0.0 0.00 0.00 0.00 86 1018.0
20260906033222 73 85 0.0 0.0 0.00 0.00 0.00 85 1018.0
20260906032717 73 84 0.0 0.0 0.00 0.00 0.00 85 1018.2
20260906032210 73 84 0.0 0.0 0.00 0.00 0.00 85 1018.2
20260906031937 73 85 0.0 0.0 0.00 0.00 0.00 84 1018.1
20260906031159 74 85 0.0 0.0 0.00 0.00 0.00 83 1018.2
20260906030653 74 85 0.0 0.0 0.00 0.00 0.00 82 1018.2
20260906030417 74 84 0.0 0.0 0.00 0.00 0.00 82 1018.2
20260906025641 74 85 0.0 0.0 0.00 0.00 0.00 82 1018.1
20260906025136 75 86 0.0 0.0 0.00 0.00 0.00 81 1018.0
20260906024629 75 86 0.0 0.0 0.00 0.00 0.00 81 1018.2
20260906024123 75 86 0.0 0.0 0.00 0.00 0.00 81 1018.2
20260906023616 75 86 0.0 0.0 0.00 0.00 0.00 81 1018.2
20260906023110 75 85 0.0 0.0 0.00 0.00 0.00 80 1018.0
20260906022604 75 84 0.0 0.0 0.00 0.00 0.00 80 1017.9
20260906022105 75 86 0.0 0.0 0.00 0.00 0.00 80 1017.8
20260906021605 75 85 0.0 0.0 0.00 0.00 0.00 80 1017.8
20260906021105 75 85 0.0 0.0 0.00 0.00 0.00 80 1017.6
20260906020605 76 85 0.0 0.0 0.00 0.00 0.00 80 1017.5
20260906020337 76 85 0.0 0.0 0.00 0.00 0.00 79 1017.1
20260906015603 76 85 0.0 0.0 0.00 0.00 0.00 79 1016.9
20260906015107 76 85 0.0 0.0 0.00 0.00 0.00 78 1016.9
20260906014604 76 84 0.0 0.0 0.00 0.00 0.00 78 1016.8
20260906014335 77 85 0.0 1.0 0.00 0.00 0.00 77 1016.6
20260906013602 77 85 0.0 1.0 0.00 0.00 0.00 77 1016.4
20260906013104 77 15 0.0 1.0 0.00 0.00 0.00 77 1016.3
20260906012603 77 15 0.0 0.0 0.00 0.00 0.00 77 1016.3
20260906012336 77 117 0.0 0.0 0.00 0.00 0.00 77 1016.2
20260906011603 77 119 0.0 0.0 0.00 0.00 0.00 77 1016.1
20260906011103 78 118 0.0 0.0 0.00 0.00 0.00 76 1016.0
20260906010602 78 118 0.0 0.0 0.00 0.00 0.00 76 1016.0
20260906010106 78 118 0.0 0.0 0.00 0.00 0.00 76 1015.9
20260906005600 78 117 0.0 0.0 0.00 0.00 0.00 76 1015.7
20260906005054 78 117 0.0 0.0 0.00 0.00 0.00 75 1015.6
20260906004548 79 119 0.0 0.0 0.00 0.00 0.00 74 1015.5
20260906004042 79 119 0.0 0.0 0.00 0.00 0.00 74 1015.5
20260906003535 79 131 0.0 0.0 0.00 0.00 0.00 73 1015.4
20260906003029 80 131 0.0 0.0 0.00 0.00 0.00 72 1015.4
20260906002523 80 131 0.0 0.0 0.00 0.00 0.00 71 1015.3
20260906002018 80 131 0.0 1.0 0.00 0.00 0.00 71 1015.3
20260906001744 80 131 0.0 2.0 0.00 0.00 0.00 70 1015.2
20260906001005 81 358 0.0 2.0 0.00 0.00 0.00 69 1015.0
20260906000500 81 4 0.0 2.0 0.00 0.00 0.00 69 1015.0
20260906000226 81 333 0.0 2.0 0.00 0.00 0.00 68 1015.1
20260905235448 82 267 0.0 2.0 0.00 0.00 0.00 68 1015.2
20260905234942 82 70 0.0 3.0 0.00 0.00 0.00 67 1015.3
20260905234436 82 82 0.0 3.0 0.00 0.00 0.00 68 1015.4
20260905233930 83 91 0.0 3.0 0.00 0.00 0.00 67 1015.4
20260905233423 83 33 0.0 3.0 0.00 0.00 0.00 66 1015.4
20260905232923 84 86 0.0 4.0 0.00 0.00 0.00 66 1015.3
20260905232917 84 99 0.0 4.0 0.00 0.00 0.00 66 1015.4
20260905231906 85 351 0.0 3.0 0.00 0.00 0.00 65 1015.3
20260905231631 84 338 1.0 4.0 0.00 0.00 0.00 66 1015.2
20260905230854 84 94 1.0 4.0 0.00 0.00 0.00 67 1015.2
20260905230618 84 356 1.0 4.0 0.00 0.00 0.00 66 1015.2
20260905225841 85 352 0.0 2.0 0.00 0.00 0.00 67 1015.2
20260905225607 85 5 1.0 3.0 0.00 0.00 0.00 67 1015.0
20260905224830 85 356 1.0 5.0 0.00 0.00 0.00 66 1014.8
20260905224324 85 61 1.0 5.0 0.00 0.00 0.00 66 1014.8
20260905224053 85 336 1.0 4.0 0.00 0.00 0.00 65 1014.8
20260905223321 85 332 1.0 5.0 0.00 0.00 0.00 66 1015.0
20260905222820 85 136 1.0 5.0 0.00 0.00 0.00 66 1015.1
20260905222320 86 350 1.0 3.0 0.00 0.00 0.00 64 1015.0
20260905221821 86 347 1.0 5.0 0.00 0.00 0.00 64 1015.1
20260905221321 86 4 1.0 5.0 0.00 0.00 0.00 65 1015.2
20260905220820 87 58 1.0 4.0 0.00 0.00 0.00 64 1015.4
20260905220548 86 4 1.0 4.0 0.00 0.00 0.00 66 1015.4
20260905215819 86 352 1.0 4.0 0.00 0.00 0.00 63 1015.3
20260905215317 86 6 1.0 6.0 0.00 0.00 0.00 62 1015.3
20260905214818 86 135 1.0 6.0 0.00 0.00 0.00 63 1015.4
20260905214316 86 0 1.0 4.0 0.00 0.00 0.00 66 1015.3
20260905213816 86 9 1.0 6.0 0.00 0.00 0.00 65 1015.3
20260905213316 86 82 0.0 6.0 0.00 0.00 0.00 66 1015.3
20260905212816 85 120 1.0 3.0 0.00 0.00 0.00 67 1015.3
20260905212317 85 18 1.0 4.0 0.00 0.00 0.00 68 1015.4
20260905211817 85 350 1.0 4.0 0.00 0.00 0.00 67 1015.5
20260905211311 85 6 1.0 4.0 0.00 0.00 0.00 67 1015.7
20260905210804 85 143 1.0 4.0 0.00 0.00 0.00 69 1015.8
20260905210259 85 0 1.0 4.0 0.00 0.00 0.00 70 1015.9
20260905205753 85 242 1.0 4.0 0.00 0.00 0.00 69 1016.0
20260905205247 85 326 1.0 4.0 0.00 0.00 0.00 68 1016.0
20260905205011 85 44 0.0 4.0 0.00 0.00 0.00 69 1016.1
20260905204235 84 164 1.0 4.0 0.00 0.00 0.00 70 1016.3
20260905203728 84 43 1.0 4.0 0.00 0.00 0.00 70 1016.3
20260905203225 84 328 1.0 4.0 0.00 0.00 0.00 70 1016.5
20260905203220 84 34 1.0 6.0 0.00 0.00 0.00 70 1016.6
20260905202211 84 18 1.0 6.0 0.00 0.00 0.00 70 1016.6
20260905201704 84 153 1.0 3.0 0.00 0.00 0.00 70 1016.6
20260905201159 83 353 1.0 3.0 0.00 0.00 0.00 69 1016.8
20260905200925 83 71 0.0 4.0 0.00 0.00 0.00 72 1016.9
20260905200648 83 359 1.0 4.0 0.00 0.00 0.00 69 1017.1
20260905195640 84 12 1.0 3.0 0.00 0.00 0.00 68 1017.3
20260905195135 84 51 0.0 2.0 0.00 0.00 0.00 71 1017.1
20260905194628 83 65 0.0 3.0 0.00 0.00 0.00 71 1017.3
20260905194123 83 232 1.0 3.0 0.00 0.00 0.00 70 1017.4
20260905193617 83 1 1.0 3.0 0.00 0.00 0.00 71 1017.4
20260905193112 82 125 0.0 2.0 0.00 0.00 0.00 70 1017.4
20260905192605 83 351 0.0 3.0 0.00 0.00 0.00 73 1017.4
20260905192059 82 108 0.0 3.0 0.00 0.00 0.00 75 1017.5
20260905191559 81 336 0.0 2.0 0.00 0.00 0.00 75 1017.5
20260905191059 81 335 0.0 2.0 0.00 0.00 0.00 73 1017.5
20260905190829 80 235 0.0 2.0 0.00 0.00 0.00 76 1017.5
20260905190058 80 228 0.0 2.0 0.00 0.00 0.00 74 1017.4
20260905185559 80 349 0.0 2.0 0.00 0.00 0.00 77 1017.5
20260905185058 79 356 0.0 2.0 0.00 0.00 0.00 76 1017.5
20260905184558 80 333 0.0 2.0 0.00 0.00 0.00 77 1017.6
20260905184058 79 72 0.0 1.0 0.00 0.00 0.00 79 1017.6
20260905183557 79 9 0.0 1.0 0.00 0.00 0.00 79 1017.7